QPF
0.13 0.10 0.07 0.06 0.05 0.03 0.04 0.06 0.05 0.05 0.05 0.05 0.05 0.06 0.07 0.07 0.07 0.08 0.08 0.09 0.11 0.15 0.16 0.17 0.17 0.19 0.20 0.24 0.32 0.30 0.17 0.12 0.13 0.09 0.07 0.06 0.06 0.05 0.04 0.04 0.07 0.06 0.03
0.11 0.09 0.07 0.07 0.06 0.05 0.04 0.06 0.05 0.05 0.05 0.05 0.05 0.05 0.05 0.05 0.06 0.06 0.07 0.07 0.08 0.10 0.12 0.15 0.15 0.15 0.13 0.14 0.22 0.20 0.12 0.12 0.13 0.10 0.09 0.08 0.07 0.05 0.04 0.04 0.07 0.08 0.05
0.08 0.08 0.06 0.05 0.06 0.05 0.05 0.06 0.06 0.06 0.05 0.04 0.04 0.04 0.04 0.03 0.04 0.06 0.06 0.07 0.08 0.09 0.10 0.12 0.14 0.12 0.09 0.08 0.11 0.14 0.11 0.11 0.12 0.10 0.13 0.14 0.12 0.07 0.05 0.04 0.04 0.04 0.05
0.09 0.09 0.08 0.08 0.06 0.05 0.04 0.05 0.06 0.06 0.05 0.04 0.03 0.04 0.05 0.05 0.04 0.06 0.07 0.08 0.08 0.08 0.09 0.12 0.14 0.11 0.08 0.08 0.08 0.10 0.12 0.12 0.11 0.12 0.15 0.17 0.15 0.09 0.06 0.04 0.03 0.03 0.03
0.08 0.08 0.09 0.08 0.05 0.04 0.04 0.04 0.05 0.06 0.05 0.04 0.04 0.04 0.04 0.04 0.06 0.06 0.06 0.06 0.07 0.08 0.10 0.13 0.18 0.17 0.12 0.11 0.10 0.11 0.10 0.11 0.11 0.11 0.11 0.10 0.09 0.08 0.05 0.04 0.03 0.03 0.03
0.07 0.06 0.04 0.04 0.03 0.04 0.04 0.03 0.04 0.05 0.05 0.05 0.05 0.05 0.04 0.05 0.06 0.07 0.06 0.07 0.07 0.09 0.12 0.15 0.21 0.22 0.18 0.17 0.13 0.11 0.12 0.14 0.12 0.09 0.08 0.08 0.08 0.06 0.06 0.05 0.04 0.04 0.04
0.07 0.05 0.03 0.03 0.03 0.03 0.03 0.03 0.03 0.05 0.06 0.05 0.06 0.07 0.06 0.06 0.06 0.07 0.07 0.08 0.07 0.08 0.12 0.14 0.17 0.24 0.23 0.21 0.15 0.12 0.11 0.12 0.12 0.10 0.08 0.08 0.06 0.05 0.06 0.07 0.05 0.05 0.04
0.06 0.06 0.03 0.02 0.03 0.03 0.03 0.02 0.02 0.03 0.05 0.05 0.05 0.06 0.07 0.07 0.05 0.06 0.07 0.07 0.06 0.06 0.09 0.13 0.14 0.22 0.23 0.20 0.13 0.09 0.08 0.08 0.08 0.08 0.09 0.07 0.04 0.04 0.05 0.05 0.05 0.05 0.06
0.05 0.06 0.07 0.06 0.04 0.03 0.03 0.02 0.02 0.02 0.03 0.04 0.04 0.05 0.08 0.09 0.07 0.07 0.07 0.06 0.05 0.06 0.10 0.12 0.13 0.20 0.22 0.17 0.08 0.05 0.06 0.10 0.09 0.08 0.07 0.06 0.05 0.04 0.04 0.04 0.05 0.06 0.09
0.05 0.06 0.08 0.07 0.06 0.05 0.03 0.02 0.02 0.02 0.02 0.03 0.03 0.04 0.08 0.11 0.11 0.10 0.08 0.06 0.06 0.08 0.11 0.15 0.15 0.17 0.16 0.12 0.08 0.06 0.06 0.10 0.12 0.10 0.09 0.07 0.06 0.05 0.05 0.05 0.05 0.07 0.09
0.04 0.05 0.06 0.06 0.05 0.04 0.03 0.01 0.02 0.03 0.03 0.04 0.05 0.04 0.07 0.10 0.10 0.11 0.09 0.08 0.08 0.09 0.13 0.18 0.14 0.15 0.12 0.10 0.08 0.07 0.08 0.07 0.06 0.10 0.10 0.07 0.05 0.06 0.06 0.06 0.06 0.07 0.09
0.04 0.04 0.04 0.06 0.05 0.06 0.04 0.03 0.04 0.04 0.04 0.05 0.06 0.07 0.10 0.11 0.11 0.09 0.10 0.13 0.12 0.11 0.15 0.23 0.18 0.14 0.11 0.11 0.11 0.11 0.11 0.08 0.07 0.07 0.06 0.04 0.04 0.05 0.05 0.05 0.06 0.07 0.08
0.05 0.03 0.03 0.05 0.06 0.06 0.06 0.05 0.05 0.05 0.04 0.04 0.04 0.07 0.09 0.09 0.08 0.08 0.10 0.12 0.13 0.12 0.15 0.21 0.21 0.15 0.11 0.12 0.13 0.14 0.15 0.11 0.09 0.09 0.08 0.06 0.06 0.06 0.07 0.08 0.10 0.13 0.13
0.05 0.03 0.03 0.04 0.04 0.05 0.06 0.07 0.06 0.05 0.04 0.05 0.04 0.05 0.06 0.08 0.09 0.07 0.09 0.08 0.08 0.08 0.11 0.15 0.18 0.13 0.10 0.10 0.12 0.15 0.15 0.13 0.10 0.09 0.11 0.11 0.08 0.08 0.08 0.08 0.10 0.13 0.12
0.03 0.03 0.03 0.03 0.04 0.04 0.05 0.07 0.06 0.07 0.05 0.05 0.05 0.05 0.05 0.07 0.09 0.08 0.09 0.09 0.07 0.07 0.07 0.08 0.09 0.09 0.09 0.09 0.10 0.12 0.12 0.10 0.08 0.08 0.08 0.07 0.05 0.05 0.04 0.04 0.05 0.07 0.06
0.02 0.02 0.02 0.02 0.03 0.04 0.06 0.07 0.08 0.11 0.08 0.06 0.05 0.04 0.06 0.07 0.07 0.08 0.08 0.08 0.08 0.07 0.05 0.06 0.06 0.07 0.07 0.07 0.08 0.08 0.08 0.07 0.05 0.06 0.09 0.09 0.05 0.04 0.03 0.03 0.05 0.06 0.07
0.01 0.01 0.02 0.03 0.03 0.04 0.06 0.07 0.08 0.10 0.07 0.04 0.04 0.04 0.05 0.07 0.08 0.08 0.07 0.07 0.07 0.06 0.04 0.04 0.05 0.06 0.06 0.08 0.10 0.09 0.09 0.06 0.04 0.05 0.07 0.09 0.06 0.04 0.04 0.04 0.05 0.05 0.07
0.02 0.03 0.03 0.02 0.02 0.03 0.05 0.05 0.06 0.06 0.04 0.03 0.04 0.04 0.05 0.06 0.08 0.09 0.07 0.06 0.06 0.06 0.06 0.06 0.05 0.07 0.07 0.08 0.09 0.10 0.10 0.09 0.08 0.06 0.07 0.09 0.09 0.08 0.07 0.05 0.05 0.05 0.05
0.02 0.02 0.03 0.02 0.03 0.03 0.04 0.04 0.05 0.05 0.03 0.03 0.04 0.04 0.05 0.04 0.05 0.08 0.07 0.07 0.07 0.08 0.07 0.05 0.05 0.06 0.06 0.06 0.08 0.09 0.09 0.08 0.08 0.07 0.07 0.08 0.08 0.08 0.09 0.07 0.06 0.06 0.05
0.02 0.02 0.02 0.03 0.04 0.04 0.04 0.04 0.05 0.04 0.03 0.03 0.04 0.04 0.04 0.05 0.06 0.08 0.07 0.07 0.08 0.08 0.07 0.05 0.05 0.05 0.04 0.05 0.05 0.07 0.09 0.09 0.09 0.08 0.06 0.07 0.09 0.10 0.09 0.08 0.10 0.07 0.06
0.02 0.02 0.02 0.03 0.05 0.05 0.04 0.04 0.04 0.04 0.04 0.04 0.04 0.06 0.06 0.08 0.08 0.09 0.07 0.08 0.09 0.09 0.07 0.06 0.07 0.05 0.05 0.04 0.06 0.07 0.08 0.08 0.07 0.06 0.05 0.07 0.09 0.09 0.08 0.07 0.08 0.09 0.07
0.01 0.01 0.01 0.02 0.04 0.06 0.05 0.04 0.04 0.04 0.04 0.04 0.05 0.07 0.08 0.08 0.09 0.07 0.06 0.06 0.07 0.10 0.06 0.06 0.07 0.05 0.04 0.04 0.05 0.07 0.10 0.12 0.09 0.05 0.05 0.06 0.06 0.06 0.06 0.07 0.08 0.09 0.08
0.00 0.01 0.01 0.01 0.03 0.05 0.05 0.03 0.03 0.04 0.04 0.05 0.05 0.07 0.08 0.08 0.08 0.08 0.06 0.05 0.06 0.07 0.07 0.06 0.05 0.05 0.05 0.05 0.05 0.08 0.09 0.11 0.09 0.08 0.06 0.04 0.04 0.04 0.04 0.05 0.05 0.07 0.07
0.00 0.01 0.01 0.01 0.02 0.04 0.05 0.05 0.04 0.05 0.05 0.05 0.05 0.06 0.07 0.08 0.08 0.09 0.08 0.07 0.06 0.05 0.06 0.05 0.04 0.04 0.05 0.05 0.06 0.06 0.07 0.07 0.06 0.06 0.06 0.05 0.05 0.04 0.04 0.03 0.04 0.05 0.05
0.00 0.00 0.01 0.01 0.01 0.03 0.03 0.04 0.04 0.04 0.04 0.04 0.05 0.05 0.05 0.06 0.07 0.06 0.06 0.07 0.07 0.05 0.05 0.06 0.05 0.04 0.03 0.03 0.04 0.04 0.04 0.04 0.03 0.03 0.04 0.04 0.05 0.04 0.04 0.04 0.04 0.05 0.05
0.00 0.00 0.00 0.01 0.01 0.02 0.03 0.03 0.04 0.04 0.04 0.03 0.04 0.04 0.04 0.05 0.05 0.06 0.06 0.08 0.08 0.06 0.04 0.05 0.05 0.04 0.03 0.04 0.04 0.04 0.03 0.03 0.03 0.03 0.04 0.04 0.04 0.04 0.04 0.05 0.05 0.04 0.05
MSLP
1002.17 1002.40 1002.71 1003.12 1003.59 1004.07 1004.52 1004.90 1005.21 1005.48 1005.73 1006.04 1006.44 1006.97 1007.62 1008.36 1009.15 1009.92 1010.62 1011.21 1011.69 1012.07 1012.37 1012.62 1012.86 1013.09 1013.32 1013.53 1013.73 1013.90 1014.06 1014.21 1014.39 1014.59 1014.83 1015.10 1015.38 1015.64 1015.87 1016.04 1016.15 1016.23 1016.28
1001.84 1002.11 1002.51 1003.01 1003.57 1004.13 1004.64 1005.06 1005.40 1005.69 1005.98 1006.32 1006.77 1007.34 1008.04 1008.81 1009.61 1010.38 1011.06 1011.62 1012.07 1012.43 1012.72 1012.96 1013.20 1013.43 1013.65 1013.85 1014.03 1014.19 1014.34 1014.49 1014.66 1014.86 1015.11 1015.38 1015.66 1015.92 1016.13 1016.29 1016.39 1016.46 1016.51
1001.42 1001.75 1002.24 1002.84 1003.49 1004.14 1004.72 1005.20 1005.60 1005.94 1006.28 1006.68 1007.17 1007.78 1008.50 1009.27 1010.06 1010.79 1011.43 1011.96 1012.39 1012.73 1013.02 1013.28 1013.52 1013.76 1013.98 1014.17 1014.34 1014.47 1014.60 1014.73 1014.89 1015.09 1015.34 1015.61 1015.88 1016.14 1016.35 1016.50 1016.61 1016.68 1016.73
1000.96 1001.35 1001.92 1002.62 1003.37 1004.10 1004.76 1005.32 1005.79 1006.20 1006.61 1007.07 1007.61 1008.26 1008.98 1009.73 1010.48 1011.17 1011.76 1012.26 1012.66 1013.00 1013.30 1013.58 1013.85 1014.10 1014.31 1014.49 1014.63 1014.74 1014.83 1014.93 1015.07 1015.26 1015.50 1015.78 1016.05 1016.31 1016.53 1016.69 1016.80 1016.89 1016.96
1000.48 1000.95 1001.60 1002.38 1003.22 1004.03 1004.76 1005.40 1005.95 1006.44 1006.93 1007.46 1008.06 1008.73 1009.45 1010.18 1010.88 1011.52 1012.07 1012.54 1012.93 1013.28 1013.61 1013.91 1014.20 1014.45 1014.66 1014.82 1014.92 1014.98 1015.03 1015.10 1015.21 1015.39 1015.63 1015.91 1016.20 1016.47 1016.69 1016.87 1017.00 1017.10 1017.19
1000.02 1000.57 1001.30 1002.16 1003.06 1003.94 1004.74 1005.44 1006.07 1006.65 1007.22 1007.83 1008.48 1009.18 1009.91 1010.62 1011.28 1011.88 1012.39 1012.84 1013.24 1013.61 1013.95 1014.28 1014.59 1014.84 1015.02 1015.14 1015.19 1015.19 1015.20 1015.23 1015.33 1015.50 1015.75 1016.04 1016.34 1016.62 1016.86 1017.05 1017.20 1017.32 1017.42
999.60 1000.24 1001.06 1001.98 1002.93 1003.85 1004.69 1005.46 1006.16 1006.82 1007.48 1008.17 1008.88 1009.62 1010.36 1011.06 1011.70 1012.26 1012.76 1013.20 1013.60 1013.99 1014.36 1014.70 1015.00 1015.23 1015.38 1015.44 1015.43 1015.39 1015.35 1015.35 1015.44 1015.62 1015.87 1016.18 1016.50 1016.80 1017.05 1017.25 1017.40 1017.53 1017.64
999.28 1000.01 1000.90 1001.87 1002.85 1003.79 1004.67 1005.48 1006.24 1006.98 1007.72 1008.49 1009.28 1010.06 1010.81 1011.51 1012.14 1012.69 1013.17 1013.61 1014.02 1014.42 1014.79 1015.14 1015.42 1015.62 1015.72 1015.72 1015.65 1015.56 1015.48 1015.47 1015.56 1015.75 1016.03 1016.37 1016.71 1017.02 1017.28 1017.47 1017.61 1017.73 1017.83
999.08 999.91 1000.87 1001.88 1002.88 1003.83 1004.71 1005.55 1006.36 1007.17 1007.99 1008.83 1009.68 1010.51 1011.29 1011.99 1012.61 1013.15 1013.63 1014.06 1014.47 1014.86 1015.23 1015.55 1015.81 1015.96 1016.00 1015.95 1015.83 1015.70 1015.61 1015.60 1015.70 1015.92 1016.24 1016.60 1016.96 1017.28 1017.53 1017.71 1017.83 1017.91 1017.99
999.07 999.99 1001.01 1002.04 1003.04 1003.99 1004.88 1005.73 1006.57 1007.43 1008.32 1009.22 1010.12 1010.98 1011.78 1012.49 1013.10 1013.63 1014.09 1014.51 1014.90 1015.28 1015.62 1015.91 1016.12 1016.22 1016.21 1016.11 1015.96 1015.81 1015.72 1015.73 1015.86 1016.12 1016.46 1016.85 1017.23 1017.56 1017.80 1017.95 1018.03 1018.08 1018.12
999.30 1000.30 1001.36 1002.41 1003.40 1004.32 1005.20 1006.05 1006.91 1007.80 1008.73 1009.67 1010.60 1011.49 1012.29 1012.99 1013.58 1014.09 1014.52 1014.91 1015.28 1015.62 1015.92 1016.17 1016.33 1016.38 1016.33 1016.20 1016.03 1015.89 1015.81 1015.85 1016.02 1016.32 1016.70 1017.11 1017.50 1017.82 1018.05 1018.18 1018.23 1018.24 1018.24
999.81 1000.87 1001.95 1002.99 1003.96 1004.86 1005.71 1006.55 1007.41 1008.30 1009.24 1010.19 1011.12 1012.00 1012.78 1013.45 1014.01 1014.48 1014.88 1015.23 1015.56 1015.86 1016.11 1016.31 1016.43 1016.44 1016.36 1016.22 1016.06 1015.94 1015.89 1015.97 1016.17 1016.50 1016.90 1017.33 1017.73 1018.04 1018.26 1018.37 1018.40 1018.38 1018.35
1000.64 1001.72 1002.80 1003.81 1004.74 1005.59 1006.40 1007.21 1008.04 1008.92 1009.83 1010.75 1011.65 1012.48 1013.22 1013.84 1014.36 1014.79 1015.14 1015.45 1015.73 1015.99 1016.20 1016.36 1016.43 1016.42 1016.34 1016.20 1016.06 1015.96 1015.95 1016.06 1016.30 1016.64 1017.05 1017.48 1017.87 1018.18 1018.40 1018.51 1018.53 1018.50 1018.46
1001.76 1002.82 1003.86 1004.83 1005.70 1006.49 1007.25 1008.00 1008.79 1009.61 1010.46 1011.32 1012.15 1012.91 1013.58 1014.14 1014.60 1014.98 1015.30 1015.57 1015.82 1016.03 1016.21 1016.33 1016.38 1016.37 1016.28 1016.17 1016.06 1015.99 1016.01 1016.14 1016.38 1016.72 1017.11 1017.52 1017.90 1018.20 1018.42 1018.54 1018.59 1018.57 1018.53
1003.13 1004.13 1005.10 1005.99 1006.78 1007.51 1008.19 1008.88 1009.58 1010.32 1011.09 1011.85 1012.59 1013.25 1013.84 1014.33 1014.74 1015.08 1015.36 1015.61 1015.83 1016.03 1016.18 1016.29 1016.33 1016.31 1016.25 1016.16 1016.08 1016.04 1016.08 1016.21 1016.43 1016.74 1017.09 1017.45 1017.80 1018.09 1018.31 1018.45 1018.53 1018.55 1018.54
1004.65 1005.56 1006.43 1007.22 1007.92 1008.56 1009.17 1009.77 1010.39 1011.03 1011.68 1012.33 1012.94 1013.51 1014.00 1014.43 1014.79 1015.10 1015.37 1015.62 1015.84 1016.02 1016.17 1016.27 1016.32 1016.32 1016.27 1016.21 1016.15 1016.14 1016.17 1016.28 1016.46 1016.70 1016.98 1017.28 1017.57 1017.82 1018.04 1018.21 1018.32 1018.39 1018.42
1006.24 1007.03 1007.77 1008.44 1009.05 1009.60 1010.12 1010.64 1011.16 1011.69 1012.22 1012.75 1013.24 1013.70 1014.11 1014.48 1014.81 1015.11 1015.38 1015.64 1015.87 1016.07 1016.22 1016.33 1016.39 1016.40 1016.38 1016.34 1016.31 1016.30 1016.32 1016.39 1016.50 1016.65 1016.83 1017.02 1017.23 1017.43 1017.63 1017.80 1017.95 1018.07 1018.15
1007.81 1008.45 1009.06 1009.61 1010.11 1010.58 1011.02 1011.46 1011.89 1012.31 1012.73 1013.13 1013.51 1013.87 1014.21 1014.53 1014.84 1015.14 1015.44 1015.72 1015.98 1016.19 1016.36 1016.48 1016.55 1016.58 1016.58 1016.56 1016.54 1016.53 1016.53 1016.54 1016.57 1016.61 1016.67 1016.74 1016.84 1016.96 1017.10 1017.26 1017.43 1017.58 1017.70
1009.28 1009.78 1010.25 1010.68 1011.09 1011.48 1011.86 1012.22 1012.58 1012.91 1013.23 1013.53 1013.81 1014.08 1014.36 1014.64 1014.95 1015.26 1015.58 1015.89 1016.17 1016.41 1016.59 1016.72 1016.80 1016.84 1016.85 1016.85 1016.84 1016.83 1016.80 1016.76 1016.70 1016.62 1016.55 1016.48 1016.45 1016.46 1016.52 1016.63 1016.78 1016.95 1017.09
1010.61 1010.97 1011.31 1011.65 1011.98 1012.31 1012.63 1012.95 1013.24 1013.52 1013.76 1013.98 1014.18 1014.38 1014.61 1014.87 1015.16 1015.48 1015.82 1016.15 1016.44 1016.69 1016.88 1017.01 1017.09 1017.14 1017.17 1017.18 1017.18 1017.17 1017.12 1017.03 1016.90 1016.72 1016.51 1016.31 1016.13 1016.00 1015.96 1015.98 1016.08 1016.23 1016.38
1011.77 1012.01 1012.25 1012.50 1012.77 1013.05 1013.34 1013.63 1013.90 1014.13 1014.33 1014.49 1014.64 1014.79 1014.97 1015.20 1015.48 1015.80 1016.14 1016.47 1016.76 1017.00 1017.18 1017.30 1017.38 1017.43 1017.47 1017.51 1017.53 1017.52 1017.47 1017.36 1017.17 1016.91 1016.59 1016.25 1015.93 1015.67 1015.49 1015.40 1015.42 1015.51 1015.64
1012.72 1012.89 1013.05 1013.23 1013.45 1013.71 1013.99 1014.28 1014.54 1014.76 1014.93 1015.06 1015.17 1015.29 1015.43 1015.63 1015.88 1016.17 1016.49 1016.80 1017.07 1017.29 1017.45 1017.55 1017.62 1017.68 1017.73 1017.78 1017.83 1017.85 1017.82 1017.71 1017.50 1017.18 1016.79 1016.35 1015.90 1015.50 1015.18 1014.97 1014.88 1014.88 1014.95
1013.45 1013.56 1013.68 1013.82 1014.02 1014.27 1014.55 1014.84 1015.12 1015.34 1015.52 1015.64 1015.73 1015.81 1015.92 1016.08 1016.29 1016.54 1016.82 1017.08 1017.32 1017.50 1017.63 1017.71 1017.77 1017.82 1017.88 1017.96 1018.04 1018.11 1018.11 1018.03 1017.83 1017.51 1017.08 1016.57 1016.04 1015.53 1015.08 1014.75 1014.53 1014.42 1014.42
1013.91 1014.02 1014.11 1014.24 1014.43 1014.68 1014.97 1015.29 1015.59 1015.84 1016.02 1016.15 1016.23 1016.29 1016.37 1016.48 1016.64 1016.84 1017.05 1017.27 1017.45 1017.59 1017.68 1017.74 1017.79 1017.84 1017.91 1018.02 1018.14 1018.25 1018.30 1018.27 1018.12 1017.83 1017.41 1016.89 1016.31 1015.73 1015.19 1014.74 1014.40 1014.18 1014.07
1014.10 1014.22 1014.32 1014.45 1014.64 1014.91 1015.22 1015.56 1015.89 1016.17 1016.38 1016.52 1016.60 1016.65 1016.70 1016.76 1016.86 1017.00 1017.16 1017.32 1017.45 1017.55 1017.62 1017.66 1017.69 1017.74 1017.83 1017.95 1018.10 1018.25 1018.36 1018.39 1018.30 1018.07 1017.71 1017.22 1016.66 1016.05 1015.46 1014.93 1014.48 1014.15 1013.92
1014.00 1014.16 1014.30 1014.45 1014.65 1014.93 1015.27 1015.64 1016.00 1016.31 1016.55 1016.71 1016.80 1016.83 1016.85 1016.88 1016.93 1017.01 1017.12 1017.23 1017.32 1017.39 1017.44 1017.47 1017.49 1017.54 1017.63 1017.76 1017.92 1018.10 1018.25 1018.34 1018.32 1018.18 1017.90 1017.49 1016.98 1016.40 1015.81 1015.23 1014.71 1014.27 1013.93
Thickness
5795 5794 5791 5790 5789 5788 5788 5787 5786 5786 5785 5785 5785 5784 5784 5783 5783 5783 5782 5781 5780 5779 5778 5778 5777 5777 5775 5773 5772 5771 5770 5768 5767 5766 5764 5764 5763 5762 5762 5760 5760 5758 5757
5798 5794 5790 5789 5788 5787 5787 5786 5785 5784 5784 5784 5783 5783 5783 5782 5781 5781 5781 5780 5780 5779 5778 5777 5777 5776 5774 5773 5772 5770 5770 5768 5766 5764 5763 5761 5761 5760 5760 5759 5758 5756 5755
5799 5794 5790 5789 5787 5787 5786 5785 5785 5784 5784 5783 5782 5782 5781 5781 5780 5780 5780 5779 5779 5778 5777 5777 5776 5775 5774 5773 5771 5770 5769 5767 5765 5763 5762 5760 5759 5758 5757 5757 5756 5754 5753
5800 5795 5791 5788 5787 5786 5785 5785 5785 5784 5783 5782 5782 5781 5780 5779 5778 5779 5779 5779 5778 5778 5777 5777 5776 5775 5774 5773 5771 5769 5768 5766 5764 5763 5762 5761 5759 5756 5755 5755 5753 5752 5751
5801 5796 5791 5789 5787 5786 5785 5785 5784 5784 5783 5782 5782 5781 5780 5779 5778 5778 5778 5778 5777 5777 5777 5776 5775 5775 5774 5772 5770 5768 5767 5765 5764 5763 5762 5761 5758 5756 5754 5753 5752 5751 5750
5801 5797 5792 5790 5788 5787 5785 5785 5784 5783 5783 5782 5781 5780 5779 5778 5778 5778 5777 5777 5776 5776 5776 5775 5774 5772 5771 5770 5768 5767 5766 5765 5763 5763 5763 5761 5757 5755 5753 5752 5751 5750 5748
5801 5798 5793 5791 5789 5787 5786 5785 5784 5783 5782 5782 5781 5779 5779 5778 5778 5778 5777 5777 5776 5775 5775 5774 5772 5771 5769 5767 5766 5766 5765 5764 5763 5763 5762 5760 5756 5754 5753 5751 5750 5748 5747
5802 5798 5794 5791 5789 5788 5787 5785 5784 5783 5782 5782 5781 5780 5779 5778 5778 5777 5777 5776 5775 5775 5774 5773 5771 5769 5768 5767 5765 5764 5763 5763 5764 5763 5761 5758 5756 5754 5752 5750 5749 5747 5746
5805 5801 5796 5793 5790 5788 5787 5786 5784 5783 5783 5782 5781 5780 5779 5778 5778 5777 5776 5776 5775 5775 5774 5772 5770 5768 5766 5765 5764 5763 5763 5762 5763 5763 5761 5758 5755 5753 5751 5750 5748 5746 5745
5805 5802 5799 5796 5794 5792 5789 5787 5785 5784 5783 5782 5782 5781 5780 5779 5778 5777 5777 5777 5776 5775 5774 5772 5770 5767 5765 5764 5763 5762 5762 5762 5762 5763 5760 5758 5755 5752 5750 5749 5747 5746 5745
5802 5801 5800 5798 5797 5795 5792 5790 5787 5786 5784 5783 5783 5782 5781 5780 5780 5779 5778 5777 5777 5775 5774 5772 5770 5767 5766 5764 5763 5763 5762 5762 5763 5761 5759 5756 5754 5752 5750 5748 5747 5746 5745
5798 5800 5801 5799 5798 5797 5796 5792 5791 5789 5786 5785 5784 5783 5782 5781 5781 5779 5778 5777 5776 5775 5773 5773 5771 5768 5767 5766 5764 5763 5762 5763 5761 5760 5757 5755 5753 5751 5749 5747 5746 5745 5744
5801 5801 5801 5800 5798 5797 5796 5794 5793 5791 5789 5787 5786 5784 5783 5782 5781 5779 5778 5777 5776 5774 5774 5774 5771 5768 5768 5768 5766 5764 5763 5763 5762 5759 5756 5754 5752 5750 5748 5747 5746 5745 5744
5802 5802 5802 5801 5798 5797 5796 5795 5793 5792 5790 5788 5787 5785 5784 5783 5782 5780 5779 5778 5777 5776 5774 5773 5771 5770 5769 5768 5767 5765 5764 5763 5761 5758 5754 5753 5751 5749 5747 5746 5745 5744 5743
5803 5802 5802 5800 5798 5796 5795 5794 5794 5792 5791 5789 5787 5786 5785 5783 5782 5781 5779 5778 5778 5777 5776 5773 5772 5771 5770 5768 5767 5766 5764 5762 5759 5756 5754 5751 5750 5748 5747 5746 5744 5743 5742
5804 5802 5802 5801 5799 5797 5795 5794 5793 5793 5791 5789 5788 5787 5786 5784 5782 5780 5779 5778 5778 5777 5776 5774 5773 5771 5770 5768 5766 5765 5764 5761 5759 5756 5754 5751 5749 5747 5746 5744 5743 5742 5741
5805 5804 5802 5802 5799 5797 5795 5794 5794 5793 5792 5790 5789 5787 5786 5784 5783 5781 5779 5778 5778 5777 5775 5774 5773 5772 5769 5768 5766 5764 5763 5761 5758 5756 5754 5751 5748 5747 5745 5744 5742 5741 5740
5808 5804 5802 5803 5800 5797 5795 5794 5794 5794 5793 5791 5789 5788 5786 5784 5783 5781 5779 5778 5777 5776 5774 5773 5771 5768 5767 5766 5764 5762 5761 5759 5758 5756 5753 5751 5749 5747 5744 5743 5741 5740 5739
5809 5805 5802 5802 5799 5797 5796 5795 5794 5793 5793 5791 5789 5788 5786 5785 5783 5781 5779 5778 5777 5775 5773 5772 5769 5767 5764 5763 5761 5760 5759 5758 5756 5755 5752 5750 5748 5746 5743 5741 5739 5738 5737
5811 5806 5803 5801 5799 5797 5796 5794 5794 5793 5793 5791 5789 5788 5786 5785 5783 5781 5779 5777 5776 5774 5772 5770 5767 5766 5764 5762 5761 5758 5756 5756 5755 5753 5751 5749 5746 5744 5742 5740 5737 5735 5735
5810 5806 5803 5799 5798 5796 5794 5792 5790 5789 5790 5790 5789 5787 5786 5784 5783 5781 5779 5777 5775 5772 5770 5769 5766 5764 5762 5761 5756 5752 5752 5753 5752 5751 5749 5747 5744 5743 5741 5739 5737 5735 5734
5809 5806 5802 5800 5798 5796 5795 5793 5793 5791 5791 5790 5789 5787 5786 5784 5783 5781 5778 5776 5774 5771 5768 5767 5765 5762 5761 5761 5755 5748 5742 5741 5744 5748 5746 5744 5742 5741 5740 5738 5736 5734 5732
5810 5806 5805 5801 5799 5798 5797 5795 5793 5791 5789 5788 5786 5785 5785 5784 5783 5780 5778 5776 5774 5772 5768 5766 5765 5762 5758 5759 5759 5752 5742 5735 5737 5741 5742 5741 5740 5738 5737 5736 5734 5732 5730
5814 5811 5807 5803 5801 5799 5798 5795 5791 5787 5783 5784 5785 5785 5785 5784 5783 5780 5778 5775 5773 5771 5768 5767 5766 5764 5761 5757 5757 5757 5754 5748 5739 5732 5735 5737 5738 5736 5734 5734 5732 5730 5728
5819 5814 5809 5805 5801 5800 5798 5796 5792 5789 5788 5788 5787 5785 5784 5784 5782 5780 5777 5775 5772 5770 5768 5766 5765 5763 5761 5758 5756 5755 5753 5750 5747 5737 5729 5730 5732 5733 5733 5731 5729 5727 5725
5821 5817 5811 5805 5802 5801 5799 5797 5794 5791 5789 5787 5785 5784 5783 5783 5781 5779 5777 5774 5772 5769 5767 5766 5764 5763 5761 5759 5757 5755 5752 5747 5744 5740 5733 5729 5727 5728 5730 5729 5727 5725 5722